Location: Borderline Observatory
(42.7345°N, 72.8696°W)
Time: 07:35:17
(UTC-05:00)

Daily predictions for brighter satellites

Satellite Brightness Start Highest point End
(mag) Time Altitude Azimuth Time Altitude Azimuth Time Altitude Azimuth
NOAA 12 4.4 17:53:54 10° SE 17:59:00 49° ENE 18:04:08 10° N
Cosmos 1975 Rocket 4.0 17:58:53 10° NNW 18:03:07 54° W 18:07:19 10° S
SKYMED 2 3.6 18:02:32 10° NNE 18:06:55 88° W 18:11:15 10° SSW
COSMOS 2428 3.8 18:03:14 10° N 18:07:49 24° NE 18:12:22 10° ESE
METEOR-M 4.2 18:04:24 10° SSE 18:09:39 60° ENE 18:14:55 10° N
Cosmos 2237 Rocket 4.1 18:10:05 10° NNE 18:11:18 11° NE 18:12:31 10° NE
Cosmos 1536 4.1 18:12:45 10° SE 18:15:38 20° E 18:18:32 10° NE
H-2A R/B 4.1 18:13:43 10° ESE 18:16:22 19° ENE 18:19:02 10° NNE
Okean 1 3.3 18:15:18 10° N 18:19:23 84° E 18:23:26 10° S
Cosmos 1812 3.5 18:16:21 10° NNW 18:20:09 58° W 18:23:56 10° S
Cosmos 1633 2.9 18:17:53 10° SSE 18:21:22 42° E 18:24:52 10° NNE
Cosmos 1536 Rocket 3.5 18:17:36 10° N 18:22:06 74° E 18:26:34 10° SSE
Cosmos 1818 3.7 18:20:25 10° SW 18:25:52 85° WNW 18:31:23 10° NNE
Cosmos 407 Rocket 3.9 18:22:00 10° SSW 18:27:13 71° WNW 18:32:33 10° NNE
Cosmos 2360 Rocket 2.2 18:22:01 10° NNW 18:27:40 65° ENE 18:33:17 10° SE
Cosmos 2219 Rocket 3.5 18:24:55 10° N 18:29:02 20° NE 18:31:48 15° E
Cosmos 2219 4.0 18:25:06 10° SSE 18:29:55 28° ESE 18:34:45 10° NE
Cosmos 676 Rocket 4.0 18:26:33 10° SSW 18:31:45 89° ESE 18:37:00 10° NNE
Cosmos 1570 Rocket 4.4 18:32:45 10° N 18:37:44 43° ENE 18:42:42 10° SE
Meteor 1-11 Rocket 3.8 18:33:34 10° S 18:39:14 60° E 18:45:03 10° NNE
DELTA 2 R/B (1) 4.4 18:40:50 10° W 18:46:10 46° SSW 18:50:44 14° SE
Cosmos 1140 Rocket 3.4 18:41:43 10° SSW 18:46:49 74° ESE 18:51:59 10° NNE
Resurs 01 Rocket 1.6 18:45:18 10° SSE 18:49:37 57° ENE 18:53:57 10° N
Cosmos 1602 3.7 18:45:53 10° S 18:49:45 88° W 18:53:41 10° N
Cosmos 1300 Rocket 3.5 18:46:52 10° S 18:51:17 87° E 18:55:44 10° N
Cosmos 614 Rocket 3.8 18:49:40 10° S 18:54:42 66° ESE 18:59:44 10° NNE
Cosmos 1833 4.4 18:51:10 10° SSW 18:56:52 77° WNW 19:02:33 10° NNE
Abrixas rocket 3.6 18:54:10 10° SSW 18:56:51 24° SE 18:56:51 24° SE
ALOS 2.2 18:52:56 10° SSE 18:57:36 90° NNE 19:02:18 10° NNW
Cosmos 2181 Rocket 4.1 18:51:49 10° N 18:58:04 82° W 19:04:25 10° S
Spot 2 Rocket 3.4 18:56:56 10° SSE 19:01:58 74° ENE 19:07:03 10° N
USA 229 DEB 4.0 18:55:43 10° NNW 19:02:41 53° NE 19:07:02 24° ESE
USA 229 4.0 18:55:50 10° NNW 19:02:47 53° NE 19:07:05 24° ESE
Cosmos 2333 Rocket 3.1 18:57:50 10° N 19:02:50 29° NE 19:04:11 27° ENE
SL-16 R/B 4.5 18:59:26 10° NW 19:04:01 26° WSW 19:08:37 10° SSW
Cosmos 2208 Rocket 4.0 18:59:19 10° NNW 19:04:46 68° ENE 19:09:51 11° SSE
Helios 1A 3.3 19:04:16 31° ESE 19:05:41 43° ENE 19:09:39 10° N
Cosmos 1340 4.1 19:02:58 10° NNW 19:06:31 39° W 19:10:03 10° SSW
NOSS 8 (E) 4.5 19:03:45 10° SW 19:07:12 85° NW 19:09:18 24° NNE
Resurs 1-3 3.5 19:03:07 10° SSE 19:07:29 74° ENE 19:11:53 10° N
Cosmos 2074 Rocket 3.9 19:07:34 10° S 19:13:45 69° E 19:20:01 10° NNE
Cosmos 1850 Rocket 3.9 19:08:40 10° SSW 19:13:58 82° ESE 19:19:20 10° NNE
Cosmos 2184 Rocket 3.9 19:10:28 10° S 19:16:43 69° E 19:22:57 10° NNE
Helios 1B rocket 2.7 19:13:41 10° NNE 19:18:13 46° SE 19:21:45 10° S
Envisat 3.6 19:18:30 35° ENE 19:18:30 35° ENE 19:22:59 10° N
NOSS 8 (H) 4.4 19:17:56 10° SW 19:21:17 84° NW 19:21:51 60° NNE
Intercosmos 24 4.3 19:17:12 10° S 19:21:24 77° E 19:27:29 10° N
USA 186 4.2 19:24:36 13° N 19:24:36 13° N 19:24:57 10° N
Okean 2 3.4 19:17:57 10° N 19:22:00 55° ENE 19:22:00 55° ENE
ERS-1 Rocket 4.5 19:25:25 21° NE 19:25:25 21° NE 19:27:49 10° N
Okean 1 Rocket 3.9 19:21:46 10° SSW 19:26:08 52° WNW 19:30:33 10° N
SAR-Lupe-1 3.9 19:26:19 76° NNE 19:26:19 76° NNE 19:29:43 10° N
Meteor 1-5 Rocket 4.2 19:20:58 10° S 19:26:56 77° E 19:32:51 10° NNE
Genesis I 3.5 19:23:08 10° NW 19:27:03 66° WSW 19:28:05 45° S
FENGYUN 3A 4.4 19:22:19 10° S 19:27:36 53° W 19:32:55 10° NNW
Cosmos 1892 Rocket 4.0 19:25:58 10° N 19:29:15 43° NE 19:29:15 43° NE
SAR-Lupe-4 3.6 19:30:26 59° SSW 19:30:59 74° WSW 19:34:34 10° NNW
NOSS 3-1 (C) 4.4 19:27:51 10° NNW 19:34:54 44° NE 19:36:56 37° ENE
Nadezhda 3 Rocket 4.0 19:29:39 10° N 19:35:39 51° ENE 19:36:38 47° ESE
Gbstr 26 Del rocket 2.9 19:33:08 10° WSW 19:36:52 62° NNW 19:36:52 62° NNW
GEOS 3 Rocket 4.0 19:39:42 17° NNE 19:43:46 61° NW 19:48:57 10° SW
Cosmos 2285 Rocket 4.0 19:38:01 10° NNW 19:44:30 89° WSW 19:47:50 31° SSE
CZ-2D R/B 4.1 19:43:32 29° SSW 19:45:06 47° W 19:48:48 10° NNW
Cosmos 1025 Rocket 3.7 19:40:57 10° NNW 19:45:14 53° W 19:48:41 15° SSW
Cosmos 2154 Rocket 3.9 19:39:27 10° S 19:45:41 62° E 19:51:57 10° NNE
Cosmos 405 Rocket 3.9 19:42:29 10° N 19:45:01 36° N 19:45:01 36° N
Meteor 2-13 Rocket 4.3 19:45:34 10° S 19:51:37 86° E 19:57:45 10° N
COSMOS 2428 3.2 19:46:53 10° NNW 19:52:28 57° WSW 19:55:38 26° S
Cosmos 2237 Rocket 2.6 19:51:08 10° NNW 19:55:53 49° NNE 19:55:53 49° NNE
NOSS 0 Rocket 3.7 20:02:05 10° NNW 20:08:16 88° ENE 20:08:24 86° SE
Cosmos 2219 Rocket 2.3 20:07:57 10° NNW 20:13:32 69° WSW 20:13:35 69° WSW
Cosmos 2219 4.2 20:08:21 10° SW 20:13:50 44° WNW 20:19:20 10° NNE
SL-16 R/B 3.8 20:24:47 10° NNW 20:27:20 25° N 20:27:20 25° N
Cosmos 2333 Rocket 3.3 20:41:48 10° NW 20:46:14 41° WNW 20:46:14 41° WNW
NOSS 3-1 (A) 4.4 20:59:01 10° NW 21:04:58 60° NW 21:04:58 60° NW
ATLAS 2AS CENTAUR R/B 4.1 21:05:01 10° NNW 21:10:18 34° N 21:10:18 34° N
